Radiation Dose at Monitoring Post of Fukushima Daini Nuclear Power Station
Date,Time,MP-1(microSv/h),MP-2(microSv/h),MP-3(microSv/h),MP-4(microSv/h),MP-5(microSv/h),MP-6(microSv/h),MP-7(microSv/h),Wind Direction,Wind Velocity(m/s),Rain
2014/12/30,00:00,0.584,0.376,0.616,0.560,0.561,0.254,0.224,west-northwest,7.6,No
2014/12/30,00:10,0.584,0.373,0.617,0.560,0.560,0.253,0.225,west-northwest,5.9,No
2014/12/30,00:20,0.583,0.375,0.618,0.561,0.560,0.252,0.224,west-northwest,4.7,No
2014/12/30,00:30,0.583,0.374,0.616,0.559,0.561,0.253,0.224,west-northwest,5.1,No
2014/12/30,00:40,0.583,0.375,0.617,0.559,0.561,0.253,0.225,west-northwest,5.0,No
2014/12/30,00:50,0.584,0.374,0.616,0.561,0.560,0.253,0.225,northwest,4.2,No
2014/12/30,01:00,0.584,0.375,0.617,0.560,0.561,0.253,0.224,northwest,4.5,No
2014/12/30,01:10,0.581,0.375,0.617,0.559,0.560,0.251,0.224,northwest,4.1,No
2014/12/30,01:20,0.582,0.374,0.617,0.560,0.560,0.252,0.224,west-northwest,3.9,No
2014/12/30,01:30,0.583,0.375,0.617,0.559,0.559,0.252,0.225,northwest,3.9,No
2014/12/30,01:40,0.583,0.374,0.616,0.561,0.560,0.253,0.225,northwest,3.3,No
2014/12/30,01:50,0.583,0.376,0.618,0.559,0.559,0.254,0.224,west-northwest,3.2,No
2014/12/30,02:00,0.582,0.374,0.617,0.561,0.559,0.254,0.225,northwest,4.1,No
2014/12/30,02:10,0.583,0.374,0.618,0.560,0.559,0.253,0.224,northwest,5.3,No
2014/12/30,02:20,0.583,0.374,0.616,0.559,0.559,0.253,0.224,northwest,4.1,No
2014/12/30,02:30,0.581,0.373,0.615,0.560,0.561,0.253,0.224,northwest,3.7,No
2014/12/30,02:40,0.581,0.374,0.617,0.560,0.560,0.253,0.225,northwest,4.1,No
2014/12/30,02:50,0.584,0.373,0.616,0.560,0.558,0.253,0.226,west-northwest,3.5,No
2014/12/30,03:00,0.582,0.375,0.619,0.560,0.561,0.252,0.225,west-northwest,3.9,No
2014/12/30,03:10,0.582,0.374,0.618,0.561,0.559,0.253,0.224,northwest,4.3,No
2014/12/30,03:20,0.584,0.373,0.617,0.560,0.559,0.252,0.224,northwest,4.6,No
2014/12/30,03:30,0.584,0.374,0.617,0.562,0.561,0.253,0.225,west-northwest,4.2,No
2014/12/30,03:40,0.583,0.373,0.618,0.560,0.559,0.253,0.225,west,3.2,No
2014/12/30,03:50,0.581,0.374,0.618,0.561,0.560,0.253,0.224,west,2.8,No
2014/12/30,04:00,0.581,0.374,0.618,0.558,0.560,0.253,0.224,west,3.3,No
2014/12/30,04:10,0.583,0.374,0.616,0.561,0.560,0.252,0.224,west,3.7,No
2014/12/30,04:20,0.582,0.374,0.617,0.561,0.560,0.254,0.225,west-northwest,3.3,No
2014/12/30,04:30,0.584,0.373,0.617,0.561,0.560,0.253,0.223,west,3.3,No
2014/12/30,04:40,0.583,0.374,0.616,0.562,0.561,0.253,0.226,west-northwest,3.4,No
2014/12/30,04:50,0.583,0.374,0.618,0.561,0.558,0.252,0.226,west-northwest,3.2,No
2014/12/30,05:00,0.582,0.374,0.618,0.562,0.560,0.253,0.225,west,2.7,No
2014/12/30,05:10,0.582,0.374,0.617,0.561,0.560,0.253,0.224,west-northwest,2.5,No
2014/12/30,05:20,0.584,0.374,0.619,0.562,0.561,0.254,0.224,west-northwest,3.1,No
2014/12/30,05:30,0.582,0.375,0.619,0.560,0.560,0.252,0.224,west-northwest,2.8,No
2014/12/30,05:40,0.583,0.373,0.618,0.561,0.559,0.252,0.224,west-northwest,2.4,No
2014/12/30,05:50,0.582,0.374,0.618,0.560,0.558,0.253,0.224,west,1.5,No
2014/12/30,06:00,0.582,0.374,0.618,0.561,0.560,0.254,0.223,west,2.5,No
2014/12/30,06:10,0.583,0.374,0.619,0.561,0.559,0.252,0.224,west,0.9,No
2014/12/30,06:20,0.582,0.374,0.618,0.562,0.559,0.252,0.223,southwest,0.9,No
2014/12/30,06:30,0.583,0.373,0.617,0.562,0.559,0.253,0.224,west-southwest,1.4,No
2014/12/30,06:40,0.582,0.374,0.617,0.560,0.560,0.252,0.224,west-southwest,0.8,No
2014/12/30,06:50,0.584,0.375,0.618,0.562,0.559,0.253,0.223,south-southwest,1.0,No
2014/12/30,07:00,0.582,0.374,0.619,0.562,0.559,0.253,0.223,south-southwest,1.7,No
2014/12/30,07:10,0.583,0.374,0.619,0.563,0.559,0.254,0.225,south,1.1,No
2014/12/30,07:20,0.583,0.374,0.617,0.561,0.559,0.254,0.223,southwest,0.6,No
2014/12/30,07:30,0.582,0.375,0.618,0.562,0.561,0.252,0.224,west,2.1,No
2014/12/30,07:40,0.583,0.375,0.617,0.560,0.558,0.253,0.224,west,3.9,No
2014/12/30,07:50,0.582,0.374,0.618,0.561,0.560,0.254,0.224,west,3.9,No
2014/12/30,08:00,0.581,0.373,0.619,0.560,0.559,0.253,0.225,west,3.8,No
2014/12/30,08:10,0.583,0.374,0.618,0.561,0.560,0.253,0.223,west-northwest,3.6,No
2014/12/30,08:20,0.582,0.374,0.619,0.562,0.561,0.252,0.224,west-northwest,5.0,No
2014/12/30,08:30,0.581,0.373,0.619,0.562,0.559,0.252,0.225,west-northwest,3.3,No
2014/12/30,08:40,0.583,0.375,0.620,0.561,0.561,0.252,0.224,northwest,1.9,No
2014/12/30,08:50,0.583,0.374,0.620,0.561,0.559,0.253,0.224,north-northwest,1.7,No
2014/12/30,09:00,0.582,0.375,0.616,0.562,0.561,0.252,0.225,north-northwest,0.6,No
2014/12/30,09:10,0.583,0.374,0.620,0.562,0.560,0.253,0.225,southwest,1.7,No
2014/12/30,09:20,0.583,0.375,0.621,0.561,0.559,0.252,0.224,southwest,2.3,No
2014/12/30,09:30,0.584,0.374,0.620,0.562,0.560,0.253,0.224,southwest,2.1,No
2014/12/30,09:40,0.584,0.374,0.619,0.561,0.562,0.253,0.224,west-southwest,1.7,No
2014/12/30,09:50,0.583,0.374,0.618,0.561,0.559,0.253,0.224,southwest,1.5,No
2014/12/30,10:00,0.584,0.375,0.618,0.565,0.561,0.253,0.225,southwest,1.2,No
2014/12/30,10:10,0.583,0.374,0.621,0.563,0.560,0.253,0.226,west-southwest,0.8,No
2014/12/30,10:20,0.584,0.375,0.620,0.563,0.561,0.253,0.223,south-southwest,1.7,No
2014/12/30,10:30,0.586,0.378,0.621,0.564,0.561,0.253,0.225,south,1.9,No
2014/12/30,10:40,0.585,0.376,0.618,0.564,0.560,0.254,0.224,south-southeast,2.2,No
2014/12/30,10:50,0.585,0.378,0.619,0.564,0.563,0.254,0.225,south-southeast,2.7,No
2014/12/30,11:00,0.585,0.377,0.620,0.565,0.562,0.254,0.225,south-southeast,3.1,No
2014/12/30,11:10,0.585,0.376,0.619,0.564,0.564,0.254,0.224,south,2.4,No
2014/12/30,11:20,0.585,0.377,0.621,0.564,0.560,0.255,0.226,south,2.1,No
2014/12/30,11:30,0.585,0.378,0.620,0.566,0.561,0.253,0.224,south-southeast,0.9,No
2014/12/30,11:40,0.585,0.377,0.622,0.565,0.563,0.256,0.224,east-southeast,1.6,No
2014/12/30,11:50,0.586,0.377,0.619,0.564,0.562,0.254,0.226,southeast,1.1,No
2014/12/30,12:00,0.584,0.377,0.621,0.565,0.563,0.255,0.225,south-southwest,0.7,No
2014/12/30,12:10,0.586,0.378,0.620,0.566,0.562,0.255,0.226,north,1.4,No
2014/12/30,12:20,0.587,0.376,0.620,0.564,0.563,0.253,0.225,south,1.1,No
2014/12/30,12:30,0.585,0.378,0.618,0.564,0.565,0.254,0.224,west-southwest,1.3,No
2014/12/30,12:40,0.586,0.377,0.618,0.565,0.563,0.255,0.226,west,2.0,No
2014/12/30,12:50,0.586,0.375,0.620,0.564,0.562,0.253,0.226,west-northwest,5.6,No
2014/12/30,13:00,0.586,0.378,0.620,0.565,0.561,0.255,0.225,west,7.4,Yes
2014/12/30,13:10,0.587,0.378,0.621,0.565,0.564,0.256,0.226,west,6.3,Yes
2014/12/30,13:20,0.587,0.378,0.620,0.565,0.562,0.256,0.228,west-northwest,5.8,Yes
2014/12/30,13:30,0.588,0.377,0.623,0.565,0.564,0.256,0.229,west,5.3,Yes
2014/12/30,13:40,0.589,0.379,0.623,0.567,0.564,0.256,0.230,west,5.2,No
2014/12/30,13:50,0.588,0.378,0.623,0.567,0.562,0.257,0.228,west-northwest,6.4,Yes
2014/12/30,14:00,0.587,0.379,0.624,0.566,0.564,0.257,0.230,west,11.0,Yes
2014/12/30,14:10,0.590,0.379,0.624,0.567,0.564,0.258,0.230,west-southwest,10.4,No
2014/12/30,14:20,0.587,0.380,0.624,0.566,0.566,0.257,0.229,west-southwest,6.9,No
2014/12/30,14:30,0.588,0.379,0.623,0.567,0.564,0.257,0.229,southwest,5.2,No
2014/12/30,14:40,0.589,0.379,0.623,0.566,0.564,0.257,0.228,west-southwest,1.7,No
2014/12/30,14:50,0.588,0.378,0.622,0.568,0.564,0.257,0.228,north-northeast,0.9,No
2014/12/30,15:00,0.588,0.378,0.623,0.567,0.562,0.256,0.228,east-northeast,1.5,No
2014/12/30,15:10,0.587,0.378,0.621,0.566,0.565,0.256,0.228,east-southeast,1.1,No
2014/12/30,15:20,0.586,0.379,0.620,0.566,0.564,0.256,0.228,south,1.4,No
2014/12/30,15:30,0.586,0.378,0.622,0.563,0.562,0.255,0.227,south,1.8,No
2014/12/30,15:40,0.586,0.376,0.621,0.564,0.564,0.255,0.228,north,1.6,No
2014/12/30,15:50,0.586,0.377,0.620,0.565,0.562,0.256,0.227,north-northwest,1.1,No
2014/12/30,16:00,0.586,0.376,0.620,0.565,0.563,0.255,0.228,north-northwest,1.1,No
2014/12/30,16:10,0.588,0.377,0.620,0.565,0.562,0.254,0.228,northwest,4.2,No
2014/12/30,16:20,0.588,0.376,0.619,0.564,0.561,0.255,0.227,west,3.9,No
2014/12/30,16:30,0.587,0.377,0.620,0.563,0.562,0.253,0.228,west-northwest,6.3,No
2014/12/30,16:40,0.586,0.378,0.620,0.561,0.563,0.255,0.227,northwest,1.9,No
2014/12/30,16:50,0.585,0.377,0.621,0.564,0.563,0.253,0.228,north,1.4,No
2014/12/30,17:00,0.586,0.376,0.623,0.565,0.562,0.255,0.227,west,1.8,No
2014/12/30,17:10,0.586,0.377,0.623,0.563,0.561,0.256,0.226,west-northwest,5.6,No
2014/12/30,17:20,0.586,0.377,0.623,0.565,0.560,0.254,0.226,west,5.6,No
2014/12/30,17:30,0.587,0.376,0.622,0.565,0.564,0.255,0.227,west,10.0,No
2014/12/30,17:40,0.587,0.378,0.622,0.564,0.562,0.256,0.227,west,10.9,No
2014/12/30,17:50,0.586,0.376,0.622,0.565,0.563,0.255,0.226,west,12.6,No
2014/12/30,18:00,0.588,0.376,0.622,0.564,0.561,0.255,0.226,west,10.1,No
2014/12/30,18:10,0.588,0.376,0.621,0.564,0.563,0.254,0.227,west,8.1,No
2014/12/30,18:20,0.588,0.376,0.622,0.564,0.564,0.255,0.227,west,7.6,No
2014/12/30,18:30,0.587,0.377,0.621,0.566,0.562,0.255,0.229,west-northwest,6.7,No
2014/12/30,18:40,0.587,0.376,0.621,0.565,0.562,0.256,0.227,west,4.7,No
2014/12/30,18:50,0.587,0.377,0.621,0.565,0.562,0.255,0.228,west,4.5,No
2014/12/30,19:00,0.587,0.377,0.621,0.565,0.560,0.256,0.228,west-northwest,2.8,No
2014/12/30,19:10,0.585,0.377,0.621,0.566,0.562,0.255,0.228,west,6.8,No
2014/12/30,19:20,0.588,0.375,0.621,0.564,0.561,0.256,0.227,west,9.5,No
2014/12/30,19:30,0.588,0.377,0.623,0.564,0.563,0.254,0.228,west,9.6,No
2014/12/30,19:40,0.588,0.377,0.622,0.565,0.560,0.255,0.227,west,9.9,No
2014/12/30,19:50,0.587,0.377,0.621,0.565,0.561,0.256,0.227,west,9.8,No
2014/12/30,20:00,0.590,0.377,0.622,0.566,0.562,0.257,0.227,west,7.3,No
2014/12/30,20:10,0.588,0.377,0.623,0.564,0.564,0.256,0.229,west,7.8,No
2014/12/30,20:20,0.588,0.377,0.621,0.565,0.562,0.255,0.227,west-southwest,8.4,No
2014/12/30,20:30,0.588,0.377,0.620,0.563,0.563,0.254,0.228,west-southwest,4.3,No
2014/12/30,20:40,0.587,0.377,0.622,0.565,0.563,0.255,0.228,west-southwest,5.1,No
2014/12/30,20:50,0.587,0.377,0.623,0.564,0.563,0.255,0.227,west-southwest,4.3,No
2014/12/30,21:00,0.589,0.376,0.623,0.563,0.564,0.255,0.228,west,5.3,No
2014/12/30,21:10,0.588,0.376,0.624,0.565,0.563,0.256,0.227,west,7.6,No
2014/12/30,21:20,0.588,0.377,0.622,0.564,0.563,0.255,0.227,west,8.1,No
2014/12/30,21:30,0.589,0.377,0.623,0.565,0.563,0.256,0.228,west,9.6,No
2014/12/30,21:40,0.589,0.378,0.623,0.565,0.563,0.255,0.228,west,7.9,No
2014/12/30,21:50,0.588,0.377,0.622,0.566,0.564,0.255,0.228,west,4.2,No
2014/12/30,22:00,0.589,0.377,0.623,0.565,0.564,0.256,0.228,west-northwest,1.7,No
2014/12/30,22:10,0.586,0.377,0.621,0.567,0.563,0.256,0.227,west,4.2,No
2014/12/30,22:20,0.587,0.377,0.622,0.565,0.562,0.257,0.228,west-southwest,4.0,No
2014/12/30,22:30,0.589,0.377,0.624,0.566,0.562,0.255,0.227,west-southwest,6.2,No
2014/12/30,22:40,0.591,0.379,0.622,0.566,0.562,0.256,0.228,west-southwest,3.6,No
2014/12/30,22:50,0.589,0.378,0.622,0.566,0.562,0.256,0.228,west,3.1,No
2014/12/30,23:00,0.589,0.377,0.621,0.565,0.563,0.256,0.228,west,5.0,No
2014/12/30,23:10,0.590,0.378,0.624,0.566,0.563,0.257,0.228,west,4.6,No
2014/12/30,23:20,0.589,0.378,0.623,0.565,0.562,0.255,0.228,southwest,2.5,No
2014/12/30,23:30,0.588,0.378,0.623,0.565,0.563,0.256,0.227,west-southwest,6.4,No
2014/12/30,23:40,0.587,0.377,0.623,0.565,0.563,0.256,0.228,west-southwest,3.8,No
2014/12/30,23:50,0.587,0.377,0.624,0.566,0.564,0.257,0.228,southwest,3.3,No
